AEROCUBE 6A

Last updated on Sun Jun 21 2026 00:03:50 GMT+0000 (Coordinated Universal Time)

1 40045U 14033AM 26171.02917940 .00003931 00000+0 33179-3 0 9994 2 40045 97.7254 337.9480 0038659 8.3765 351.8095 14.98131862647048
UTC large
Height (km)
Speed (km/s)
/
Latitude / Longitude
Inclination (degrees)
Orbital Period (minutes)
Azimuth
Elevation
Range (km)
Doppler Factor

Next 0 passes for location: London (51.5072 / 0.1276)

No passes found over London.
AEROCUBE 6A